CZ-4C DEB, 40113

Orbit data source: Space-Track

CZ-4C DEB, 40113 is space debris in LEO originally from a launch on Sat, 09 Aug 2014 UTC launched from the Jiuquan Satellite Launch Center, China (JSC). Debris objects in space refer to the collection of defunct objects orbiting the Earth. Examples of debris include non-operational satellites, rocket bodies, and fragments generated from explosions, collisions, or faulty payload assembly.

Loading next visibility...
Identifier
40113, 2014-047E
Orbit
LEO
Country
Flag of CNCN / PRC
Related business
Manufacturer
CAST
Mission
Spacecraft
Bus & Motor
Unknown
Mass
Unknown
Launch date (UTC)
2014-08-09 (11 years ago)
Launch vehicle
Unknown
Launch site
Jiuquan Satellite Launch Center, China (JSC)
Object type
Payload
Rocket body
Debris
Shape & HBR
Unknown shape, 3.4 m
Radar Cross Section
Large (>1 m²)

Expand to show TLE details & history
Last TLE update: 7 hours ago

TLE from 7 hours ago
0 CZ-4C DEB
1 40113U 14047E   25289.13507737  .00000128  00000-0  24717-3 0  9999
2 40113  63.3811 308.6898 0370931  14.3626 346.7607 13.44625078549146
Epoch: 2025-10-16T03:14Z
TLE epoch observation values (Epoch: 2025-10-16T03:14:30.684Z)
Latitude
-0.00002°
Longitude
-124.83721°
Altitude
824.68 km
Speed
7.574 km/s
True Right ascension
20h 34m 45s
True Declination
0° 00' 00"
Sunlit
Object was in daylight at epoch
Visualization orbit readout
Latitude
Unknown
Longitude
Unknown
Altitude
Unknown
Speed
Unknown
Apparent Right ascension
Unknown
Apparent Declination
Unknown
Sunlit
N/A
Visualization observer readout
Local Sidereal Time
05:01:34
Azimuth
Unknown
Elevation
Unknown
Doppler factor
Unknown
Orbital elements
Apogee altitude
1,367.98 km
Perigee altitude
813.879 km
Semi-major axis
7,469.067 km
Eccentricity
0.03709
Inclination
63.3811°
RAAN
308.6898°
Arg. of periapsis
14.3626°
True anomaly
345.74138°
Mean anomaly
346.7607°
Eccentric anomaly
346.25576°
Mean motion
3.36236 °/min
Orbital period
107.07 mins
BSTAR
0.00024717
Loading maneuver chart data...
Computing Atmospheric mass density...
Loading historical data...
Loading historical data...
Loading historical data...
Loading historical data...
Loading historical data...
Loading historical data...
Loading historical data...

Documentation

Showing up to 5 results
|